Volver al catálogo

ARABSAT 2B

ActivoComunicacionesGEO
NORAD 24652·PAYLOAD·🇦🇪 UAE🇸🇦 Saudi Arabia

Lanzado Nov 13, 1996 desde Guiana Space Centre

Loading…

TLE

ActualizadoSource: Space-Track

Época: Sep 14, 2026, 14:10 UTC

1 24652U 96063A   26257.59075248 -.00000252  00000-0  00000-0 0  9995
2 24652  10.7754  47.9236 0005047 132.5955 187.3489  0.99417168109344

Sigue ARABSAT 2B en tiempo real con AllMySat

Download on the App Store